#timestamp,LO_Frequency,Hit,StdDev 
1570773615.5,286046994.1,N
1570773635.4,286046990.3,N
1570773655.2,286046991.3,N
1570773675.0,286046989.2,N
1570773675.9,286046989.2,N
1570773695.8,286046990.7,N
1570773715.6,286046993.0,N
1570773735.5,286046993.2,N
1570773755.3,286046991.4,Y
1570773775.1,286046996.6,P
1570773795.9,286047001.1,N
1570773815.7,286046997.4,N
1570773835.5,286046996.8,N
1570773855.4,286046997.2,N
1570773875.2,286046997.2,N
1570773895.1,286046997.6,N
1570773896.0,286046997.6,N
1570773915.8,286046997.7,N
1570773935.6,286046998.7,N
1570773955.5,286046997.7,N
1570773975.3,286046995.1,N
1570773995.1,286046997.5,N
1570774015.9,286046993.4,Y
1570774035.7,286047001.6,P
1570774055.6,286046994.9,N
1570774075.4,286046991.7,N
1570774095.2,286046996.1,N
1570774115.1,286046996.5,N
1570774116.0,286046996.5,N
1570774135.8,286046996.1,N
1570774155.6,286046995.0,N
1570774175.5,286046996.8,N
1570774195.3,286046997.2,N
1570774215.2,286046996.9,N
1570774235.9,286046996.2,N
1570774255.7,286046997.3,N
1570774275.6,286046997.0,N
1570774295.4,286046996.5,N
1570774315.2,286046996.7,N
1570774335.1,286046998.0,N
1570774336.0,286046998.0,N
1570774355.8,286046994.5,Y
1570774375.7,286046999.7,P
1570774395.5,286046998.3,N
1570774415.3,286046999.5,N
1570774435.2,286046996.7,N
1570774455.0,286046999.0,N
1570774455.9,286046999.0,N
1570774475.8,286047001.0,N
1570774495.6,286046999.9,N
1570774515.4,286047000.6,N
1570774535.3,286046998.2,N
1570774555.1,286046998.9,N
1570774575.8,286047000.7,N
1570774595.7,286046998.1,N
1570774615.5,286046999.6,N
1570774635.3,286047000.5,N
1570774655.2,286046998.5,N
1570774675.0,286047000.7,N
1570774675.9,286047000.7,N
1570774695.8,286047001.6,N
1570774715.6,286047003.6,N
1570774735.4,286047003.8,N
1570774755.3,286047001.6,N
1570774775.1,286047001.7,N
1570774795.8,286047002.1,N
1570774815.7,286047001.8,N
1570774835.5,286047001.8,N
1570774855.4,286047001.8,N
1570774875.2,286047002.8,N
1570774895.0,286047000.5,N
1570774895.9,286047000.5,N
1570774915.8,286046999.8,N
1570774935.6,286047001.2,N
1570774955.4,286046999.7,N
1570774975.3,286046998.1,N
1570774995.1,286047000.8,N
1570775015.9,286047002.5,N
1570775035.7,286046998.4,N
1570775055.5,286046998.9,N
1570775075.4,286046996.5,N
1570775095.2,286046999.4,N
1570775115.0,286046995.1,N
1570775116.0,286046995.1,N
1570775135.8,286046997.3,N
1570775155.6,286046998.0,N
1570775175.5,286046996.5,N
1570775195.3,286046998.6,N
1570775215.1,286046999.6,N
1570775235.9,286046995.4,N
1570775255.7,286046997.7,N
1570775275.5,286046993.4,N
1570775295.4,286046994.4,N
1570775315.2,286046993.5,N
1570775335.1,286046992.8,N
1570775336.0,286046992.8,N
1570775355.8,286046992.6,N
1570775375.6,286046993.1,N
1570775395.5,286046992.9,N
1570775415.3,286046990.6,Y
1570775435.2,286046996.5,P
1570775455.9,286046996.7,P
1570775475.7,286046997.9,P
1570775495.6,286046995.2,Y
1570775515.4,286046998.7,P
1570775535.2,286046997.2,P
1570775555.1,286046999.5,N
1570775556.0,286046999.5,N
1570775575.8,286046998.0,N
1570775595.7,286046998.9,N
1570775615.5,286046996.6,Y
1570775635.3,286047000.4,P
1570775655.2,286046998.5,N
1570775675.0,286046998.9,N
1570775675.9,286046998.9,N
1570775695.8,286046997.7,Y
1570775715.6,286046996.7,P
1570775735.4,286046993.4,P
1570775755.3,286046997.1,N
1570775775.1,286046998.2,N
1570775795.8,286046996.2,N
1570775815.7,286046993.9,Y
1570775835.5,286046998.4,P
1570775855.4,286047000.2,N
1570775875.2,286047000.3,N
1570775895.0,286046998.3,N
1570775895.9,286046998.3,N
1570775915.8,286047000.5,N
1570775935.6,286047011.9,Y
1570775955.5,286047004.6,P
1570775975.3,286047005.9,N
1570775995.1,286047004.8,N
1570776015.9,286047005.1,N
1570776035.7,286047006.6,N
1570776055.5,286047009.2,Y
1570776075.4,286047000.9,P
1570776095.2,286046998.3,N
1570776115.1,286046999.6,N
1570776116.0,286046999.6,N
1570776135.8,286046996.0,N
1570776155.6,286046995.3,N
1570776175.5,286046995.3,N
1570776195.3,286046996.6,N
1570776215.1,286046997.1,N
1570776235.9,286046999.4,N
1570776255.7,286047002.2,N
1570776275.6,286047002.5,N
1570776295.4,286047000.1,N
1570776315.2,286047001.1,N
1570776335.1,286046996.5,N
1570776336.0,286046996.5,N
1570776355.8,286046997.6,N
1570776375.6,286046998.0,N
1570776395.5,286046995.3,N
1570776415.3,286046993.3,N
1570776435.2,286046996.1,N
1570776455.9,286046995.1,N
1570776475.7,286046996.8,N
1570776495.6,286046995.5,N
1570776515.4,286046993.5,N
1570776535.2,286046996.4,N
1570776555.1,286046993.8,N
1570776556.0,286046993.8,N
1570776575.8,286046992.8,N
1570776595.7,286046990.1,Y
1570776615.5,286046991.8,P
1570776635.3,286046994.3,N
1570776655.2,286046994.8,N
1570776675.0,286046994.2,N
1570776675.9,286046994.2,Y
1570776695.7,286047000.9,P
1570776715.6,286046999.9,N
1570776735.4,286047001.6,N
1570776755.3,286046999.4,N
1570776775.1,286047000.5,N
1570776776.0,286047000.5,N
1570776795.8,286047000.2,N
1570776815.7,286047002.7,N
1570776835.5,286047001.1,N
1570776855.3,286047002.7,N
1570776875.2,286046997.5,N
1570776895.0,286046997.1,N
1570776895.9,286046997.1,N
1570776915.8,286046999.5,N
1570776935.6,286046999.4,N
1570776955.4,286047000.8,N
1570776975.3,286047000.8,N
1570776995.1,286046999.0,N
1570777015.8,286046999.2,N
1570777035.7,286047001.0,N
1570777055.5,286047000.4,N
1570777075.4,286047001.8,N
1570777095.2,286046998.7,N
1570777115.0,286046998.5,N
1570777115.9,286046998.5,N
1570777135.8,286047001.0,N
1570777155.6,286046996.7,N
1570777175.4,286047002.5,N
1570777195.3,286047003.4,N
